This is the latest recevied weather packets stored in our database for station/object K9MWD. If no packets are shown the sender has not sent any weather packets the latest 10 day(s).
| Time | Temp. | Humidity | Pressure | Rain* | Wind** | Luminosity | Snow |
|---|---|---|---|---|---|---|---|
| 1788387244 | 37.22° C | 41% | 1011.3 hPa | 0 mm | - | 499 W/m² | - |
| 1788386940 | 36.67° C | 41% | 1011.1 hPa | 0 mm | - | 496 W/m² | - |
| 1788386640 | 37.22° C | 41% | 1011.3 hPa | 0 mm | - | 157 W/m² | - |
| 1788386335 | 37.22° C | 41% | 1011.4 hPa | 0 mm | - | 494 W/m² | - |
| 1788386030 | 37.22° C | 41% | 1011.3 hPa | 0 mm | - | 483 W/m² | - |
| 1788385726 | 36.67° C | 42% | 1011.2 hPa | 0 mm | - | 478 W/m² | - |
| 1788385425 | 36.67° C | 42% | 1011.5 hPa | 0 mm | - | 505 W/m² | - |
| 1788385120 | 36.67° C | 44% | 1011.4 hPa | 0 mm | - | 123 W/m² | - |
| 1788384816 | 36.67° C | 44% | 1011.7 hPa | 0 mm | - | 116 W/m² | - |
| 1788384514 | 37.22° C | 41% | 1011.5 hPa | 0 mm | - | 577 W/m² | - |
| 1788384211 | 37.78° C | 41% | 1011.4 hPa | 0 mm | - | 571 W/m² | - |
| 1788383907 | 37.22° C | 41% | 1011.8 hPa | 0 mm | - | 616 W/m² | - |
| 1788383602 | 36.67° C | 42% | 1011.7 hPa | 0 mm | - | 661 W/m² | - |
| 1788383298 | 37.22° C | 41% | 1011.7 hPa | 0 mm | - | 662 W/m² | - |
| 1788382997 | 36.67° C | 42% | 1011.9 hPa | 0 mm | - | 651 W/m² | - |
| 1788382695 | 36.11° C | 44% | 1011.9 hPa | 0 mm | - | 135 W/m² | - |
| 1788382396 | 37.22° C | 41% | 1011.7 hPa | 0 mm | - | 214 W/m² | - |
| 1788382091 | 37.22° C | 42% | 1011.9 hPa | 0 mm | - | 695 W/m² | - |
| 1788381786 | 37.22° C | 42% | 1012 hPa | 0 mm | - | 723 W/m² | - |
| 1788381482 | 36.67° C | 41% | 1012.1 hPa | 0 mm | - | 732 W/m² | - |
| 1788381177 | 36.67° C | 43% | 1012.1 hPa | 0 mm | - | 726 W/m² | - |
| 1788380876 | 36.67° C | 42% | 1012.3 hPa | 0 mm | - | 746 W/m² | - |
| 1788380574 | 36.11° C | 42% | 1012.2 hPa | 0 mm | - | 786 W/m² | - |
| 1788380270 | 36.11° C | 44% | 1012.3 hPa | 0 mm | - | 831 W/m² | - |
| 1788379969 | 36.11° C | 43% | 1012.4 hPa | 0 mm | - | 837 W/m² | - |
* Rain latest hour (hover to see other rain measurements)
** Current wind speed in m/s (hover to see current wind gust speed)